GW7162 Weather Reports


time (UTC)temp
F
wind
direction
speed
knots
gust
knots
rain 1hr
in
rain 24hr
in
rain mn
in
humidity
%
barometer
mb
20260906172546 98 182 0.9 0.9 0.00 0.00 0.00 43 1015.8
20260906172042 98 184 0.0 0.0 0.00 0.00 0.00 43 1015.8
20260906171541 97 90 0.0 0.0 0.00 0.00 0.00 43 1015.9
20260906171037 96 131 0.0 0.0 0.00 0.00 0.00 45 1016.0
20260906170533 96 171 0.0 0.0 0.00 0.00 0.00 44 1016.3
20260906170032 96 2 1.7 1.7 0.00 0.00 0.00 44 1016.1
20260906165529 96 143 0.0 0.0 0.00 0.00 0.00 44 1016.0
20260906165024 95 178 0.0 0.0 0.00 0.00 0.00 46 1016.4
20260906164523 95 170 0.0 0.0 0.00 0.00 0.00 45 1016.2
20260906164019 95 70 0.0 0.0 0.00 0.00 0.00 45 1016.4
20260906163514 96 341 1.7 1.7 0.00 0.00 0.00 45 1016.3
20260906163009 95 141 0.0 0.0 0.00 0.00 0.00 47 1016.4
20260906162506 93 182 0.0 0.0 0.00 0.00 0.00 51 1016.4
20260906162001 93 183 0.0 0.9 0.00 0.00 0.00 50 1016.7
20260906161456 94 214 0.9 0.9 0.00 0.00 0.00 48 1016.7
20260906160955 93 171 0.0 0.0 0.00 0.00 0.00 51 1016.4
20260906160454 93 92 0.9 1.7 0.00 0.00 0.00 49 1016.7
20260906155952 93 174 0.0 0.0 0.00 0.00 0.00 50 1016.4
20260906155451 93 157 0.0 0.0 0.00 0.00 0.00 49 1016.9
20260906154947 91 162 0.0 0.0 0.00 0.00 0.00 51 1016.5
20260906154443 91 193 0.0 0.0 0.00 0.00 0.00 52 1016.4
20260906153941 91 168 0.0 0.0 0.00 0.00 0.00 53 1016.5
20260906153440 90 172 0.0 0.0 0.00 0.00 0.00 55 1016.3
20260906152936 89 179 0.0 0.0 0.00 0.00 0.00 54 1016.1
20260906152435 89 178 0.0 0.0 0.00 0.00 0.00 54 1016.3
20260906151934 89 178 0.0 0.0 0.00 0.00 0.00 55 1016.4
20260906151430 88 189 0.0 0.0 0.00 0.00 0.00 55 1016.5
20260906150926 87 190 0.9 0.9 0.00 0.00 0.00 56 1016.3
20260906150420 87 180 0.0 0.0 0.00 0.00 0.00 58 1016.3
20260906145920 87 191 0.0 0.9 0.00 0.00 0.00 58 1016.3
20260906145419 87 183 0.0 0.0 0.00 0.00 0.00 60 1016.4
20260906144914 87 191 0.0 0.0 0.00 0.00 0.00 60 1016.3
20260906144409 87 169 0.0 0.0 0.00 0.00 0.00 60 1016.2
20260906143904 86 172 0.0 0.0 0.00 0.00 0.00 61 1016.2
20260906143400 85 186 0.0 0.0 0.00 0.00 0.00 62 1016.1
20260906142856 85 164 0.0 0.0 0.00 0.00 0.00 63 1016.1
20260906142355 85 173 0.0 0.0 0.00 0.00 0.00 66 1016.4
20260906141851 84 173 0.0 0.0 0.00 0.00 0.00 65 1016.3
20260906141350 83 166 0.0 0.0 0.00 0.00 0.00 67 1016.3
20260906140850 83 180 0.0 0.0 0.00 0.00 0.00 69 1016.3
20260906140344 82 171 0.0 0.0 0.00 0.00 0.00 69 1016.5
20260906135843 82 176 0.0 0.0 0.00 0.00 0.00 70 1016.3
20260906135343 81 166 0.0 0.0 0.00 0.00 0.00 69 1016.3
20260906134838 81 167 0.0 0.0 0.00 0.00 0.00 71 1016.2
20260906134339 80 169 0.0 0.0 0.00 0.00 0.00 73 1016.2
20260906133835 80 143 0.0 0.0 0.00 0.00 0.00 75 1016.2
20260906133330 79 177 0.0 0.0 0.00 0.00 0.00 76 1016.3
20260906132825 78 165 0.0 0.0 0.00 0.00 0.00 76 1016.2
20260906132320 78 166 0.0 0.0 0.00 0.00 0.00 78 1016.3
20260906131816 78 155 0.0 0.9 0.00 0.00 0.00 79 1016.1
20260906131311 79 147 0.0 0.0 0.00 0.00 0.00 77 1016.1
20260906130807 78 167 0.0 0.0 0.00 0.00 0.00 77 1016.0
20260906130306 78 170 0.0 0.0 0.00 0.00 0.00 79 1016.2
20260906125805 75 166 0.0 0.0 0.00 0.00 0.00 82 1016.0
20260906125306 74 165 0.0 0.0 0.00 0.00 0.00 85 1015.9
20260906124758 74 172 0.0 0.0 0.00 0.00 0.00 87 1015.9
20260906124254 73 177 0.0 0.0 0.00 0.00 0.00 88 1015.6
20260906123753 73 177 0.0 0.0 0.00 0.00 0.00 89 1015.7
20260906123248 73 176 0.0 0.0 0.00 0.00 0.00 89 1015.6
20260906122747 73 175 0.0 0.0 0.00 0.00 0.00 90 1015.6
20260906122243 72 175 0.0 0.0 0.00 0.00 0.00 90 1015.5
20260906121739 72 175 0.0 0.0 0.00 0.00 0.00 90 1015.7
20260906121236 72 174 0.0 0.0 0.00 0.00 0.00 90 1015.6
20260906120731 72 182 0.0 0.0 0.00 0.00 0.00 91 1015.3
20260906120228 72 183 0.0 0.0 0.00 0.00 0.00 91 1015.6
20260906115723 72 183 0.0 0.0 0.00 0.00 0.00 91 1015.4
20260906115224 72 177 0.0 0.0 0.00 0.00 0.00 91 1015.3
20260906114723 72 179 0.0 0.0 0.00 0.00 0.00 90 1015.3
20260906114218 72 179 0.0 0.0 0.00 0.00 0.00 90 1015.2
20260906113714 72 179 0.0 0.0 0.00 0.00 0.00 90 1015.2
20260906113213 72 179 0.0 0.0 0.00 0.00 0.00 89 1015.0
20260906112712 72 179 0.0 0.0 0.00 0.00 0.00 89 1015.1
20260906112210 72 179 0.0 0.0 0.00 0.00 0.00 89 1015.1
20260906111709 72 179 0.0 0.0 0.00 0.00 0.00 89 1015.0
20260906111203 72 179 0.0 0.0 0.00 0.00 0.00 89 1015.0
20260906110659 72 180 0.0 0.0 0.00 0.00 0.00 89 1015.0
20260906110154 72 181 0.0 0.0 0.00 0.00 0.00 89 1015.1
20260906105654 73 170 0.0 0.0 0.00 0.00 0.00 88 1015.0
20260906105150 73 170 0.0 0.0 0.00 0.00 0.00 87 1014.9
20260906104649 73 170 0.0 0.0 0.00 0.00 0.00 87 1015.0
20260906104149 73 170 0.0 0.0 0.00 0.00 0.00 87 1015.1
20260906103646 73 170 0.0 0.0 0.00 0.00 0.00 87 1015.0
20260906103142 73 171 0.0 0.0 0.00 0.00 0.00 87 1014.8
20260906102637 73 171 0.0 0.0 0.00 0.00 0.00 86 1014.9
20260906102137 73 171 0.0 0.0 0.00 0.00 0.00 86 1014.7
20260906101637 73 171 0.0 0.0 0.00 0.00 0.00 86 1014.7
20260906101137 73 170 0.0 0.0 0.00 0.00 0.00 85 1014.9
20260906100632 73 170 0.0 0.0 0.00 0.00 0.00 85 1014.8
20260906100127 73 176 0.0 0.0 0.00 0.00 0.00 85 1014.8
20260906095628 73 176 0.0 0.0 0.00 0.00 0.00 85 1014.8
20260906095123 73 176 0.0 0.0 0.00 0.00 0.00 85 1014.9
20260906094622 73 181 0.0 0.0 0.00 0.00 0.00 85 1014.8
20260906094118 73 181 0.0 0.0 0.00 0.00 0.00 85 1014.9
20260906093614 74 184 0.0 0.0 0.00 0.00 0.00 84 1014.7
20260906093108 74 178 0.0 0.0 0.00 0.00 0.00 83 1014.8
20260906092603 74 178 0.0 0.0 0.00 0.00 0.00 83 1014.9
20260906092058 74 178 0.0 0.0 0.00 0.00 0.00 83 1014.8
20260906091554 74 176 0.0 0.0 0.00 0.00 0.00 83 1014.8
20260906091051 74 157 0.0 0.0 0.00 0.00 0.00 83 1014.6
20260906090550 74 177 0.0 0.0 0.00 0.00 0.00 82 1014.8
20260906090046 74 177 0.0 0.0 0.00 0.00 0.00 82 1014.6
20260906085544 74 177 0.0 0.0 0.00 0.00 0.00 82 1014.6
20260906085044 74 177 0.0 0.0 0.00 0.00 0.00 82 1014.5
20260906084539 75 177 0.0 0.0 0.00 0.00 0.00 81 1014.5
20260906084037 75 176 0.0 0.0 0.00 0.00 0.00 81 1014.5
20260906083533 75 176 0.0 0.0 0.00 0.00 0.00 81 1014.6
20260906083033 75 177 0.0 0.0 0.00 0.00 0.00 81 1014.4
20260906082528 75 176 0.0 0.0 0.00 0.00 0.00 80 1014.5
20260906082024 75 186 0.0 0.0 0.00 0.00 0.00 80 1014.5
20260906081520 75 172 0.0 0.0 0.00 0.00 0.00 81 1014.5
20260906081015 75 173 0.0 0.0 0.00 0.00 0.00 81 1014.5
20260906080512 75 173 0.0 0.0 0.00 0.00 0.00 80 1014.5
20260906080008 75 173 0.0 0.0 0.00 0.00 0.00 80 1014.5
20260906075501 75 173 0.0 0.0 0.00 0.00 0.00 80 1014.4
20260906074956 75 172 0.0 0.0 0.00 0.00 0.00 80 1014.5
20260906074451 75 172 0.0 0.0 0.00 0.00 0.00 80 1014.4
20260906073949 75 173 0.0 0.0 0.00 0.00 0.00 80 1014.4
20260906073444 75 173 0.0 0.0 0.00 0.00 0.00 80 1014.4
20260906072941 75 173 0.0 0.0 0.00 0.00 0.00 79 1014.5
20260906072435 76 173 0.0 0.0 0.00 0.00 0.00 79 1014.5
20260906071931 76 172 0.0 0.0 0.00 0.00 0.00 78 1014.6
20260906071427 76 171 0.0 0.0 0.00 0.00 0.00 77 1014.6
20260906070923 76 172 0.0 0.0 0.00 0.00 0.00 77 1014.7
20260906070419 77 171 0.0 0.0 0.00 0.00 0.00 76 1014.5
20260906065915 77 170 0.0 0.0 0.00 0.00 0.00 76 1014.5
20260906065409 77 170 0.0 0.0 0.00 0.00 0.00 75 1014.7
20260906064905 77 169 0.0 0.0 0.00 0.00 0.00 75 1014.7
20260906064401 77 177 0.0 0.0 0.00 0.00 0.00 75 1014.8
20260906063900 77 177 0.0 0.0 0.00 0.00 0.00 75 1014.7
20260906063355 77 176 0.0 0.0 0.00 0.00 0.00 74 1014.8
20260906062850 77 176 0.0 0.0 0.00 0.00 0.00 74 1014.9
20260906062350 78 176 0.0 0.0 0.00 0.00 0.00 74 1014.8
20260906061845 78 176 0.0 0.0 0.00 0.00 0.00 74 1014.8
20260906061342 78 179 0.0 0.0 0.00 0.00 0.00 73 1014.8
20260906060836 78 179 0.0 0.0 0.00 0.00 0.00 73 1014.7
20260906060334 78 179 0.0 0.0 0.00 0.00 0.00 73 1014.8
20260906055830 78 179 0.0 0.0 0.00 0.00 0.00 72 1014.8
20260906055325 78 179 0.0 0.0 0.00 0.00 0.00 72 1014.7
20260906054820 79 179 0.0 0.0 0.00 0.00 0.00 72 1014.6
20260906054315 79 179 0.0 0.0 0.00 0.00 0.00 70 1014.7
20260906053812 79 179 0.0 0.0 0.00 0.00 0.00 70 1014.7
20260906053307 80 179 0.0 0.0 0.00 0.00 0.00 70 1014.7
20260906052802 80 183 0.0 0.0 0.00 0.00 0.00 70 1014.6
20260906052258 80 193 1.7 1.7 0.00 0.00 0.00 70 1014.7
20260906051755 84 176 0.0 0.0 0.00 0.00 0.00 63 1014.6
20260906051254 84 168 0.0 0.0 0.00 0.00 0.00 58 1014.4
20260906050750 84 168 0.0 0.0 0.00 0.00 0.00 58 1014.6
20260906050245 84 146 0.0 0.0 0.00 0.00 0.00 59 1014.2
20260906045744 84 166 0.0 0.0 0.00 0.00 0.00 59 1014.4
20260906045239 84 149 0.0 0.0 0.00 0.00 0.00 58 1014.4
20260906044735 84 157 0.0 0.0 0.00 0.00 0.00 58 1014.5
20260906044229 84 169 0.0 0.0 0.00 0.00 0.00 59 1014.4
20260906043726 84 168 0.0 0.0 0.00 0.00 0.00 59 1014.4
20260906043221 84 155 0.0 0.0 0.00 0.00 0.00 59 1014.5
20260906042721 84 145 0.0 0.0 0.00 0.00 0.00 58 1014.6
20260906042220 84 154 0.0 0.0 0.00 0.00 0.00 59 1014.5
20260906041716 84 151 0.0 0.0 0.00 0.00 0.00 59 1014.6
20260906041211 85 158 0.0 0.0 0.00 0.00 0.00 59 1014.6
20260906040706 84 156 0.0 0.0 0.00 0.00 0.00 59 1014.4
20260906040202 84 151 0.0 0.0 0.00 0.00 0.00 60 1014.4
20260906035657 84 136 0.0 0.0 0.00 0.00 0.00 60 1014.4
20260906035153 84 157 0.0 0.0 0.00 0.00 0.00 61 1014.3
20260906034647 83 162 0.0 0.0 0.00 0.00 0.00 61 1014.4
20260906034142 82 167 0.0 0.0 0.00 0.00 0.00 64 1014.4
20260906033638 82 177 0.0 0.0 0.00 0.00 0.00 66 1014.4
20260906033137 83 177 0.0 0.0 0.00 0.00 0.00 66 1014.4
20260906032635 83 178 0.0 0.0 0.00 0.00 0.00 63 1014.3
20260906032134 84 178 0.0 0.0 0.00 0.00 0.00 62 1014.3
20260906031629 85 173 0.0 0.0 0.00 0.00 0.00 61 1014.2
20260906031125 85 169 0.0 0.0 0.00 0.00 0.00 59 1014.3
20260906030624 85 160 0.0 0.0 0.00 0.00 0.00 59 1014.2
20260906030120 85 166 0.0 0.0 0.00 0.00 0.00 59 1014.3
20260906025619 85 153 0.0 0.9 0.00 0.00 0.00 59 1014.2
20260906025118 86 166 0.0 0.9 0.00 0.00 0.00 57 1014.4
20260906024613 87 162 0.0 0.0 0.00 0.00 0.00 56 1014.1
20260906024113 87 167 0.0 0.0 0.00 0.00 0.00 55 1014.1
20260906023604 87 166 0.0 0.0 0.00 0.00 0.00 54 1013.7
20260906023103 87 159 0.0 0.0 0.00 0.00 0.00 54 1014.1
20260906022559 88 171 0.0 0.0 0.00 0.00 0.00 53 1013.8
20260906022054 88 165 0.0 0.9 0.00 0.00 0.00 53 1013.7
20260906021550 88 167 0.0 0.0 0.00 0.00 0.00 53 1013.7
20260906021049 88 160 0.0 0.0 0.00 0.00 0.00 52 1013.7
20260906020548 89 156 0.0 0.0 0.00 0.00 0.00 52 1013.7
20260906020048 89 169 0.0 0.0 0.00 0.00 0.00 51 1013.4
20260906015547 89 169 0.0 0.0 0.00 0.00 0.00 51 1013.5
20260906015047 89 168 0.0 0.0 0.00 0.00 0.00 50 1013.5
20260906014542 90 169 0.0 0.0 0.00 0.00 0.00 50 1013.4
20260906014038 90 169 0.0 0.0 0.00 0.00 0.00 49 1013.2
20260906013533 90 168 0.0 0.0 0.00 0.00 0.00 49 1013.2
20260906013029 90 163 0.0 0.0 0.00 0.00 0.00 48 1013.2
20260906012524 89 115 0.0 0.9 0.00 0.00 0.00 49 1013.2
20260906012023 86 176 0.0 0.0 0.00 0.00 0.00 55 1013.1
20260906011519 87 179 0.0 0.0 0.00 0.00 0.00 54 1012.8
20260906011019 87 179 0.0 0.0 0.00 0.00 0.00 54 1013.0
20260906010514 88 179 0.0 0.0 0.00 0.00 0.00 52 1013.0
20260906010011 89 179 0.0 0.0 0.00 0.00 0.00 51 1013.0
20260906005510 90 179 0.0 0.0 0.00 0.00 0.00 50 1013.1
20260906005009 91 168 0.0 0.0 0.00 0.00 0.00 47 1013.0
20260906004509 91 171 0.0 0.0 0.00 0.00 0.00 47 1013.0
20260906004004 92 154 0.0 0.0 0.00 0.00 0.00 44 1013.0
20260906003459 90 160 0.0 0.0 0.00 0.00 0.00 45 1012.9
20260906002954 89 177 0.0 0.0 0.00 0.00 0.00 49 1012.9
20260906002454 89 177 0.0 0.0 0.00 0.00 0.00 48 1012.8
20260906001950 90 177 0.0 0.0 0.00 0.00 0.00 47 1012.8
20260906001446 90 177 0.0 0.0 0.00 0.00 0.00 46 1012.8
20260906000940 91 177 0.0 0.0 0.00 0.00 0.00 46 1012.8
20260906000436 91 177 0.0 0.0 0.00 0.00 0.00 46 1012.9
20260905235930 92 177 0.0 0.0 0.00 0.00 0.00 44 1012.8
20260905235430 93 177 0.0 0.0 0.00 0.00 0.00 43 1012.9
20260905234925 93 177 0.0 0.0 0.00 0.00 0.00 42 1013.0
20260905234420 94 177 0.0 0.0 0.00 0.00 0.00 42 1012.9
20260905233915 95 177 0.0 0.0 0.00 0.00 0.00 41 1012.9
20260905233410 96 175 0.0 0.0 0.00 0.00 0.00 39 1012.8
20260905232909 97 165 0.0 0.0 0.00 0.00 0.00 36 1012.8
20260905232405 97 153 1.7 1.7 0.00 0.00 0.00 35 1012.9
20260905231901 96 181 0.0 0.0 0.00 0.00 0.00 40 1012.7
20260905231356 97 179 0.0 0.0 0.00 0.00 0.00 38 1012.9
20260905230853 97 180 0.0 0.0 0.00 0.00 0.00 39 1012.8
20260905230350 98 183 0.0 0.0 0.00 0.00 0.00 40 1012.8
20260905225849 98 170 0.0 0.0 0.00 0.00 0.00 36 1012.8
20260905225344 98 163 0.9 1.7 0.00 0.00 0.00 37 1012.7
20260905224840 97 181 0.0 0.0 0.00 0.00 0.00 40 1012.8
20260905224336 98 193 0.0 0.0 0.00 0.00 0.00 38 1012.6
20260905223830 99 190 0.9 0.9 0.00 0.00 0.00 38 1012.5
20260905223328 99 167 0.0 0.0 0.00 0.00 0.00 38 1012.7
20260905222822 99 181 0.0 0.0 0.00 0.00 0.00 39 1012.7
20260905222321 99 168 0.0 0.0 0.00 0.00 0.00 36 1012.6
20260905221817 99 153 0.0 0.9 0.00 0.00 0.00 36 1012.6
20260905221314 99 173 0.0 0.9 0.00 0.00 0.00 37 1012.7
20260905220810 100 155 0.0 0.9 0.00 0.00 0.00 36 1012.8
20260905220306 100 184 0.0 0.0 0.00 0.00 0.00 37 1012.7
20260905215805 99 174 0.0 0.0 0.00 0.00 0.00 38 1012.8
20260905215300 99 169 0.9 0.9 0.00 0.00 0.00 36 1012.9
20260905214756 99 206 1.7 2.6 0.00 0.00 0.00 37 1013.0
20260905214252 100 195 0.9 0.9 0.00 0.00 0.00 38 1012.9
20260905213747 100 175 0.0 0.0 0.00 0.00 0.00 37 1013.1
20260905213243 100 164 0.9 0.9 0.00 0.00 0.00 37 1013.1
20260905212738 100 182 0.9 0.9 0.00 0.00 0.00 37 1013.1
20260905212237 99 151 0.0 0.0 0.00 0.00 0.00 37 1013.2
20260905211737 100 224 4.3 5.2 0.00 0.00 0.00 37 1013.2
20260905211232 102 192 0.9 1.7 0.00 0.00 0.00 37 1013.2
20260905210729 102 209 0.0 0.0 0.00 0.00 0.00 35 1013.2
20260905210229 101 202 0.9 0.9 0.00 0.00 0.00 36 1013.5
20260905205727 101 162 0.0 0.9 0.00 0.00 0.00 37 1013.6
20260905205223 101 152 0.0 0.9 0.00 0.00 0.00 36 1013.7
20260905204722 101 173 0.9 0.9 0.00 0.00 0.00 37 1013.7
20260905204218 101 124 0.0 0.0 0.00 0.00 0.00 37 1014.0
20260905203717 101 170 0.0 0.0 0.00 0.00 0.00 37 1013.8
20260905203213 102 244 0.0 0.9 0.00 0.00 0.00 36 1014.0
20260905202708 101 205 0.9 0.9 0.00 0.00 0.00 37 1014.1
20260905202203 100 222 0.9 1.7 0.00 0.00 0.00 37 1014.2
20260905201659 101 185 0.0 0.0 0.00 0.00 0.00 36 1014.4
20260905201158 102 202 0.0 0.9 0.00 0.00 0.00 36 1014.2
20260905200654 101 177 0.0 0.0 0.00 0.00 0.00 36 1014.3
20260905200149 100 146 0.0 0.0 0.00 0.00 0.00 38 1014.3
20260905195648 99 162 0.9 0.9 0.00 0.00 0.00 39 1014.4
20260905195143 100 203 1.7 2.6 0.00 0.00 0.00 38 1014.5
20260905194638 100 179 0.0 0.0 0.00 0.00 0.00 38 1014.5
20260905194137 101 200 0.0 0.9 0.00 0.00 0.00 37 1014.7
20260905193632 99 154 0.0 0.0 0.00 0.00 0.00 38 1014.7
20260905193133 100 52 1.7 1.7 0.00 0.00 0.00 39 1014.8
20260905192628 99 124 1.7 2.6 0.00 0.00 0.00 39 1014.8
20260905192125 100 163 1.7 1.7 0.00 0.00 0.00 39 1014.7
20260905191624 99 177 0.0 0.0 0.00 0.00 0.00 39 1014.9
20260905191122 96 185 0.0 0.9 0.00 0.00 0.00 43 1014.9
20260905190621 96 172 0.0 0.0 0.00 0.00 0.00 42 1015.0
20260905190121 96 179 0.0 0.0 0.00 0.00 0.00 44 1015.2
20260905185619 96 180 0.0 0.0 0.00 0.00 0.00 42 1015.3
20260905185114 97 177 0.0 0.0 0.00 0.00 0.00 43 1015.3
20260905184609 100 184 0.9 0.9 0.00 0.00 0.00 42 1015.4
20260905184108 101 197 0.9 1.7 0.00 0.00 0.00 39 1015.3
20260905183607 99 179 0.0 0.0 0.00 0.00 0.00 41 1015.7
20260905183102 100 279 0.9 1.7 0.00 0.00 0.00 41 1015.5
20260905182602 98 170 0.0 0.0 0.00 0.00 0.00 42 1015.7
20260905182056 97 176 0.0 0.0 0.00 0.00 0.00 42 1015.8
20260905181556 97 183 0.0 0.0 0.00 0.00 0.00 42 1015.8
20260905181055 96 183 0.0 0.0 0.00 0.00 0.00 43 1015.9
20260905180550 96 151 0.0 0.0 0.00 0.00 0.00 43 1015.9
20260905180046 95 179 0.0 0.0 0.00 0.00 0.00 44 1016.0
20260905175545 95 183 0.0 0.0 0.00 0.00 0.00 45 1016.1
20260905175041 97 179 0.0 0.0 0.00 0.00 0.00 46 1016.1
20260905174536 97 181 0.9 0.9 0.00 0.00 0.00 44 1016.1
20260905174032 96 180 0.0 0.0 0.00 0.00 0.00 44 1016.1
20260905173528 96 151 0.0 0.9 0.00 0.00 0.00 45 1016.4
20260905173023 96 119 0.0 0.0 0.00 0.00 0.00 46 1016.4